Tracking 29969 objects as of 6-Dec-2024
HD Live streaming from Space Station
objects crossing your sky now

ONEWEB-0337

Track ONEWEB-0337 now!
10-day predictions
ONEWEB-0337 is classified as:


NORAD ID: 49203
Int'l Code: 2021-083T
Perigee: 1,215.6 km
Apogee: 1,218.2 km
Inclination: 87.9 °
Period: 109.6 minutes
Semi major axis: 7587 km
RCS: Unknown
Launch date: September 14, 2021
Source: United Kingdom (UK)
Launch site: TYURATAM MISSILE AND SPACE COMPLEX (TTMTR)
Your satellite tracking list
Your tracking list is empty




NASA's NSSDC Master Catalog

Two Line Element Set (TLE):
1 49203U 21083T   24341.19025695  .00000080  00000-0  18346-3 0  9996
2 49203  87.8936  71.2277 0001753 109.5043 250.6275 13.13468860158961
Source of the keplerian elements: AFSPC